User: anonymous   Login
Location: Unspecified
(0.0000°N, 0.0000°E)
Time: 07:46:20
(UTC+02:00)
Language:

Cosmos 1315 Rocket - Orbit

View from above orbital plane
View from above orbital plane
View from above satellite
View from above satellite

Ground track
Ground track

The orbit data is extracted from the following two-line orbital elements,

1 12904U 81103B   15247.85892485  .00000215  00000-0  13572-4 0  9997
2 12904  81.1771 299.0227 0029738  49.4232 310.9571 15.04361633394865
Epoch (UTC): 04 September 2015 20:36:51
Eccentricity: 0.0029738
inclination: 81.1771°
perigee height: 533 km
apogee height: 574 km
right ascension of ascending node: 299.0227°
argument of perigee: 49.4232°
revolutions per day: 15.04361633
mean anomaly at epoch: 310.9571°
orbit number at epoch: 39486

The dashed part of the orbit path shows where the satellite is in the earth's shadow,  

DLR